Regional Weather Roundup
Issued by NWS

Home | Current Version | Previous Version | Graphics & Text | Print | Product List | Glossary On
Versions: 1 2 3 4 5 6 7 8 9 10 11 12 13 14 15 16 17 18 19 20 21 22 23 24 25 26 27 28 29 30 31 32 33 34 35 36 37 38 39 40 41 42 43 44 45 46 47 48 49 50
000
ASUS44 KMEG 051100
RWRTN
TENNESSEE HOURLY STATE WEATHER ROUNDUP
NATIONAL WEATHER SERVICE MEMPHIS TN
600 AM CDT TUE MAY 05 2015

TNZ002-004-019-021-049-052-054-088>092-051200-
WEST TENNESSEE

CITY           SKY/WX    TMP DP  RH WIND       PRES   REMARKS
MEMPHIS INTL   PTCLDY    67  55  65 S7        30.20R
NWS MEMPHIS      N/A     65 N/A N/A MISG        N/A
JACKSON        CLEAR     55  52  89 CALM      30.22R
DYERSBURG      MOCLDY    63  45  51 CALM      30.22R
PARIS          CLEAR     54  50  87 CALM      30.23S
LEXINGTON      CLEAR     50  50 100 CALM      30.23S
$$

TNZ008-025-027-028-033-062-065-066-051200-
NORTH MIDDLE TENNESSEE

CITY           SKY/WX    TMP DP  RH WIND       PRES   REMARKS
NASHVILLE      PTCLDY    57  53  86 CALM      30.27R
CLARKSVILLE    CLEAR     54  53  97 SE3       30.24S
CROSSVILLE     CLEAR     52  49  89 CALM      30.34R
$$

TNZ061-075-076-078-094-096-097-051200-
SOUTH MIDDLE TENNESSEE

CITY           SKY/WX    TMP DP  RH WIND       PRES   REMARKS
FAYETTEVILLE     N/A     54  52  94 CALM      30.29R
TULLAHOMA      CLEAR     52  48  87 CALM      30.30S
WINCHESTER     CLEAR     57  52  82 CALM      30.30R
SHELBYVILLE    CLEAR     55  54  94 E6        30.29S
$$

TNZ017-018-042-046-047-051200-
NORTHEAST TENNESSEE

CITY           SKY/WX    TMP DP  RH WIND       PRES   REMARKS
TRI CITIES     PTCLDY    50  49  96 CALM      30.34R
ELIZABETHTON   SUNNY     52  48  87 NE3       30.35R
$$

TNZ012-013-036-069-073-074-051200-
CENTRAL EAST TENNESSEE

CITY           SKY/WX    TMP DP  RH WIND       PRES   REMARKS
KNOXVILLE      PTCLDY    57  52  83 CALM      30.31R
OAK RIDGE      CLEAR     54  51  90 CALM      30.33R
GATLINBURG     MOSUNNY   52  50  93 CALM      30.32R
$$

TNZ083-085-099-051200-
SOUTHEAST TENNESSEE

CITY           SKY/WX    TMP DP  RH WIND       PRES   REMARKS
CHATTANOOGA    PTCLDY    55  53  93 CALM      30.32R
$$

SKY/WX REPORTED AS FAIR MEANS FEW OR NO CLOUDS BELOW
12 THOUSAND FEET.



USA.gov is the U.S. government's official web portal to all federal, state and local government web resources and services.